STARLINK-34827, 65038

Orbit data source: Space-Track

STARLINK-34827, 65038 is a payload satellite owned by SpaceX/Seattle (US) in LEO that was launched on Wed, 30 Jul 2025 UTC via an FALCON 9 launch vehicle from the Air Force Eastern Test Range (AFETR). Payload-class satellites include a variety of spacecraft equipped with specific instruments for various scientific and technological missions. These include communications satellites like Starlink; space stations such as the ISS; scientific satellites like the Hubble; Earth observation satellites from companies like Planet Labs, Umbra, and HawkEye 360; GPS; miniature CubeSats for education and research; and military/defense satellites.

Loading next visibility...
Identifier
65038, 2025-161Z
Orbit
LEO
Country
Flag of USUS
Related business
Manufacturer
SpaceX/Seattle
Mission
Operational Commercial Communications
Bus & Motor
STARLINK V2MO, Unknown motor
Mass
575 kg wet, ~530 kg dry
Launch date (UTC)
2025-07-30 (11 months ago)
Launch vehicle
FALCON 9
Launch site
Air Force Eastern Test Range (AFETR)
Object type
Payload
Rocket body
Debris
Shape & HBR
Box + 2 Pan, 17.7 m
Radar Cross Section
36.964 m², Large (>1 m²)

Expand to show TLE details & history
Last TLE update: 13 hours ago

TLE from 13 hours ago
0 STARLINK-34827
1 65038U 25161Z   26171.29688588  .00017644  00000-0  53218-3 0  9992
2 65038  53.1578 176.5917 0001022  79.6588 280.4530 15.34395199 49955
Epoch: 2026-06-20T07:07Z
TLE epoch observation values (Epoch: 2026-06-20T07:07:30.940Z)
Latitude
0.00002°
Longitude
161.19926°
Altitude
463.492 km
Speed
7.636 km/s
True Right ascension
11h 46m 22s
True Declination
0° 00' 00"
Sunlit
Object was in daylight at epoch
Visualization orbit readout
Latitude
Unknown
Longitude
Unknown
Altitude
Unknown
Speed
Unknown
Apparent Right ascension
Unknown
Apparent Declination
Unknown
Sunlit
N/A
Visualization observer readout
Local Sidereal Time
07:19:54
Azimuth
Unknown
Elevation
Unknown
Doppler factor
Unknown
Orbital elements
Apogee altitude
463.674 km
Perigee altitude
462.276 km
Semi-major axis
6,841.112 km
Eccentricity
0.0001
Inclination
53.1578°
RAAN
176.5917°
Arg. of periapsis
79.6588°
True anomaly
280.44148°
Mean anomaly
280.453°
Eccentric anomaly
280.44724°
Mean motion
3.83578 °/min
Orbital period
93.85 mins
BSTAR
0.00053218
Loading maneuver chart data...
Computing Atmospheric mass density...
Loading historical data...
Loading historical data...
Loading historical data...
Loading historical data...
Loading historical data...
Loading historical data...
Loading historical data...

Documentation

Showing up to 5 results
|